Location: *
(50.5492°N, 7.7469°E)
Time: 14:31:43
(UTC+00:00)

CZ-2D R/B - Visible Passes

Search period start: 18 January 2020 00:00
Search period end: 28 January 2020 00:00
Orbit: 522 x 538 km, 97.4° (Epoch: 17 January)

Date Brightness Start Highest point End Pass type
(mag) Time Alt. Az. Time Alt. Az. Time Alt. Az.
18 Jan 6.5 05:57:53 10° NE 06:00:00 14° E 06:02:06 10° ESE visible
18 Jan 4.9 16:45:08 10° E 16:47:22 15° ENE 16:49:37 10° NNE visible
18 Jan 3.6 18:17:29 10° S 18:21:17 63° W 18:25:07 10° NNW visible
19 Jan 6.8 05:48:22 10° ENE 05:49:31 11° E 05:50:39 10° ESE visible
19 Jan 5.1 16:35:31 10° E 16:37:07 12° ENE 16:38:44 10° NNE visible
19 Jan 3.2 18:07:05 10° SSE 18:10:54 83° WSW 18:14:46 10° NNW visible
20 Jan 3.1 17:56:44 10° SSE 18:00:32 77° ENE 18:04:24 10° N visible
20 Jan 6.6 19:34:14 10° WSW 19:35:25 11° W 19:36:38 10° WNW visible
21 Jan 3.2 17:46:25 10° SSE 17:50:11 59° ENE 17:54:00 10° N visible
21 Jan 6.3 19:22:49 10° WSW 19:24:56 14° W 19:27:05 10° NW visible
22 Jan 3.5 17:36:11 10° SE 17:39:51 46° ENE 17:43:34 10° N visible
22 Jan 6.0 19:11:47 10° SW 19:14:28 18° W 19:17:10 10° NW visible
23 Jan 5.1 06:39:13 10° NNE 06:42:51 37° E 06:46:29 10° SSE visible
23 Jan 3.8 17:26:01 10° SE 17:29:32 36° ENE 17:33:05 10° N visible
23 Jan 5.7 19:00:56 10° SW 19:04:00 23° W 19:07:06 10° NW visible
24 Jan 5.6 06:29:00 10° NNE 06:32:26 29° E 06:35:52 10° SSE visible
24 Jan 4.1 17:15:54 10° SE 17:19:13 29° ENE 17:22:36 10° N visible
24 Jan 5.3 18:50:13 10° SSW 18:53:33 28° W 18:56:56 10° NW visible
25 Jan 6.1 06:18:51 10° NE 06:22:00 23° E 06:25:08 10° SSE visible
25 Jan 4.3 17:05:51 10° ESE 17:08:55 23° ENE 17:12:02 10° N visible
25 Jan 4.8 18:39:34 10° SSW 18:43:08 36° W 18:46:44 10° NNW visible
26 Jan 6.3 06:08:46 10° NE 06:11:32 18° E 06:14:18 10° SE visible
26 Jan 4.6 16:55:53 10° ESE 16:58:38 19° ENE 17:01:26 10° NNE visible
26 Jan 4.3 18:29:01 10° S 18:32:43 47° W 18:36:28 10° NNW visible
27 Jan 6.5 05:58:49 10° NE 06:01:04 15° E 06:03:18 10° SE visible
27 Jan 4.8 16:46:02 10° E 16:48:23 16° ENE 16:50:45 10° NNE visible
27 Jan 3.7 18:18:31 10° S 18:22:18 61° WSW 18:26:10 10° NNW visible
